Reus, Spain

7:11 PM CEST on September 27, 2016 (GMT +0200)
Reus Air Base

Weather History for LERS - October, 2013

Change the Weather History Date:

Sunday, October 13, 2013

  Actual Average Record
Temperature  
Mean Temperature 66 °F -  
Max Temperature 75 °F 71 °F 80 °F (2011)
Min Temperature 57 °F 56 °F 48 °F (2004)
Cooling Degree Days 1    
Growing Degree Days 16 (Base 50)    
Moisture  
Dew Point 58 °F    
Average Humidity 74    
Maximum Humidity 88    
Minimum Humidity 57    
Precipitation  
Precipitation 0.00 in - - ()
Sea Level Pressure  
Sea Level Pressure 30.08 in    
Wind  
Wind Speed 5 mph ()    
Max Wind Speed 9 mph    
Max Gust Speed -    
Visibility 6.2 miles    
Events      
Averages and records for this station are not official NWS values.
T = Trace of Precipitation, MM = Missing Value Source: Averaged Metar Reports

Daily Weather History Graph

Daily Weather History Graph

Search for Another Location

Airport or City:

Trip Planner

Search our weather history database for the weather conditions in past years. The results will help you decide how hot, cold, wet, or windy it might be!

Date:

Astronomy

Oct. 13, 2013 Rise Set
Actual Time 8:04 AM CEST 7:17 PM CEST
Civil Twilight 7:36 AM CEST 7:45 PM CEST
Nautical Twilight 7:05 AM CEST 8:17 PM CEST
Astronomical Twilight 6:33 AM CEST 8:49 PM CEST
Moon 4:01 PM CEST (10/13) 1:54 AM CEST (10/13)
Length of Visible Light 12h 08m
Length of Day
11h 12m
Waxing Gibbous, 66% of the Moon is Illuminated
Oct 13
Waxing Gibbous
Oct 19
Full
Oct 27
Last Quarter
Nov 3
New
Nov 10
First Quarter

Hourly Weather History & Observations

Time (CEST) Temp. Dew Point Humidity Pressure Visibility Wind Dir Wind Speed Gust Speed Precip Events Conditions
12:00 AM 59.0 °F 55.4 °F 88% 30.09 in - North 6.9 mph - N/A   Clear
7:00 AM 57.2 °F 51.8 °F 82% 30.06 in 6.2 mi NNE 6.9 mph - N/A   Mostly Cloudy
7:30 AM 57.2 °F 51.8 °F 82% 30.06 in 6.2 mi NNE 8.1 mph - N/A   Mostly Cloudy
8:00 AM 57.2 °F 51.8 °F 82% 30.06 in 6.2 mi NE 5.8 mph - N/A   Mostly Cloudy
8:30 AM 57.2 °F 51.8 °F 82% 30.09 in 6.2 mi NNE 5.8 mph - N/A   Mostly Cloudy
9:00 AM 57.2 °F 50.0 °F 77% 30.09 in 6.2 mi NNE 9.2 mph - N/A   Mostly Cloudy
9:30 AM 59.0 °F 50.0 °F 72% 30.09 in 6.2 mi NNE 6.9 mph - N/A   Scattered Clouds
10:00 AM 62.6 °F 51.8 °F 68% 30.12 in 6.2 mi NNE 6.9 mph - N/A   Scattered Clouds
10:30 AM 64.4 °F 53.6 °F 68% 30.12 in 6.2 mi NNE 5.8 mph - N/A   Partly Cloudy
11:00 AM 68.0 °F 55.4 °F 64% 30.12 in 6.2 mi NNE 3.5 mph - N/A   Partly Cloudy
11:30 AM 69.8 °F 57.2 °F 64% 30.12 in 6.2 mi Calm Calm - N/A   Partly Cloudy
12:00 PM 73.4 °F 59.0 °F 61% 30.09 in 6.2 mi Variable 2.3 mph - N/A   Partly Cloudy
12:30 PM 73.4 °F 59.0 °F 61% 30.09 in 6.2 mi SSW 4.6 mph - N/A   Partly Cloudy
1:00 PM 75.2 °F 59.0 °F 57% 30.09 in 6.2 mi South 4.6 mph - N/A   Partly Cloudy
1:30 PM 73.4 °F 60.8 °F 65% 30.09 in 6.2 mi SSE 5.8 mph - N/A   Partly Cloudy
2:00 PM 73.4 °F 60.8 °F 65% 30.09 in 6.2 mi SSE 8.1 mph - N/A   Partly Cloudy
2:30 PM 73.4 °F 60.8 °F 65% 30.06 in 6.2 mi SE 8.1 mph - N/A   Partly Cloudy
3:00 PM 73.4 °F 60.8 °F 65% 30.06 in 6.2 mi SE 6.9 mph - N/A   Partly Cloudy
3:30 PM 73.4 °F 60.8 °F 65% 30.06 in 6.2 mi SSE 6.9 mph - N/A   Partly Cloudy
4:00 PM 73.4 °F 60.8 °F 65% 30.06 in 6.2 mi SE 6.9 mph - N/A   Partly Cloudy
4:30 PM 73.4 °F 60.8 °F 65% 30.06 in 6.2 mi ESE 5.8 mph - N/A   Partly Cloudy
5:00 PM 71.6 °F 60.8 °F 69% 30.06 in 6.2 mi SE 4.6 mph - N/A   Partly Cloudy
5:30 PM 71.6 °F 60.8 °F 69% 30.06 in 6.2 mi SSE 3.5 mph - N/A   Partly Cloudy
6:00 PM 71.6 °F 60.8 °F 69% 30.06 in 6.2 mi SE 4.6 mph - N/A   Partly Cloudy
6:30 PM 71.6 °F 62.6 °F 73% 30.06 in 6.2 mi SE 3.5 mph - N/A   Partly Cloudy
7:00 PM 69.8 °F 62.6 °F 78% 30.06 in 6.2 mi Variable 2.3 mph - N/A   Partly Cloudy
7:30 PM 68.0 °F 60.8 °F 78% 30.06 in 6.2 mi Variable 1.2 mph - N/A   Partly Cloudy
8:00 PM 66.2 °F 60.8 °F 83% 30.09 in 6.2 mi Calm Calm - N/A   Partly Cloudy
8:30 PM 64.4 °F 59.0 °F 83% 30.09 in 6.2 mi Calm Calm - N/A   Partly Cloudy
9:00 PM 64.4 °F 60.8 °F 88% 30.09 in 6.2 mi Calm Calm - N/A   Partly Cloudy
9:30 PM 66.2 °F 60.8 °F 83% 30.09 in 6.2 mi Variable 2.3 mph - N/A   Partly Cloudy
10:00 PM 66.2 °F 60.8 °F 83% 30.09 in 6.2 mi Variable 1.2 mph - N/A   Partly Cloudy
10:30 PM 62.6 °F 59.0 °F 88% 30.12 in 6.2 mi Variable 2.3 mph - N/A   Partly Cloudy
11:00 PM 64.4 °F 60.8 °F 88% 30.12 in 6.2 mi North 4.6 mph - N/A   Partly Cloudy
11:30 PM 62.6 °F 59.0 °F 88% 30.12 in 6.2 mi Variable 2.3 mph - N/A   Partly Cloudy